Weather Roundup
Issued by NWS

Home | Current Version | Previous Version | Text Only | Print | Product List | Glossary On
Versions: 1 2 3 4 5 6 7 8 9 10 11 12 13 14 15 16 17 18 19 20 21 22 23 24 25 26 27 28 29 30 31 32 33 34 35 36 37 38 39 40 41 42 43 44 45 46 47 48 49 50
991
NZUS93 KARX 281459
HRRWXR

CURRENT HOURLY OBSERVATIONS ACROSS
MUCH OF THE UPPER MISSISSIPPI VALLEY
NATIONAL WEATHER SERVICE LA CROSSE WI
1000 AM CDT TUE MAR 28 2017


...SOUTHEAST MINNESOTA...


CITY           SKY/WX    TMP DP  RH WIND       PRES   REMARKS
ROCHESTER      SUNNY    N/A N/A N/A MISG      30.14R
ROCHESTER/MAYO FAIR      42  38  88 CALM      30.14S
WINONA         FOG       34  34 100 CALM      30.18R VSB<1/4
AUSTIN         SUNNY     45  39  81 E3        30.13R
ALBERT LEA     SUNNY     43  43 100 CALM      30.13S
DODGE CENTER   SUNNY     41  39  93 E5        30.14R
PRESTON        SUNNY     43  37  78 E6        30.14R
OWATONNA       SUNNY     48  37  66 SE3       30.14R
FARIBAULT      SUNNY     48  39  71 CALM      30.14R
$$

...ELSEWHERE IN MINNESOTA...


CITY           SKY/WX    TMP DP  RH WIND       PRES   REMARKS
MINNEAPOLIS    MOSUNNY   47  37  68 CALM      30.14R
INTNL FALLS    SUNNY     41  28  60 NE3       30.16R
DULUTH         MOSUNNY   47  34  60 SW3       30.13R
RED WING       FOG       37  36  93 CALM      30.15S VSB<1/4
REDWOOD FALLS  SUNNY     48  36  63 NE5       30.13R
MANKATO        SUNNY     47  37  68 SE6       30.14R
WORTHINGTON    SUNNY     45  40  82 NE7       30.13R
FAIRMONT       SUNNY     45  40  82 E6        30.13S
$$

...SOUTHWEST WISCONSIN...


CITY           SKY/WX    TMP DP  RH WIND       PRES   REMARKS
LA CROSSE      FOG       38  38 100 W3        30.16R VSB 1/2
PRAIRIE DU CHI CLOUDY    45  41  85 NE6       30.13R
BOSCOBEL       CLOUDY    45  41  86 NE3       30.15R
LONE ROCK      NOT AVBL
PLATTEVILLE    CLOUDY    44  44 100 E8        30.12R
FORT MC COY    PTSUNNY   44  38  81 CALM      30.14S
CAMP DOUGLAS   PTSUNNY   45  37  76 VRB3      30.14R
MAUSTON-NEW LI PTSUNNY   44  37  75 E5        30.13S
VIROQUA        CLOUDY    43  38  82 NE8       30.12R
WIS DELLS      CLOUDY    42  37  82 NE6       30.13S
$$

...ELSEWHERE IN WISCONSIN...


CITY           SKY/WX    TMP DP  RH WIND       PRES   REMARKS
MILWAUKEE      CLOUDY    42  35  76 N14       30.12R
MADISON        PTSUNNY   44  36  73 NE10      30.13R
GREEN BAY      SUNNY     43  37  79 NE8       30.15R
EAU CLAIRE     NOT AVBL
BLACK RVR FLS  FOG       35  35 100 CALM      30.15R VSB<1/4
MEDFORD        SUNNY     38  36  92 CALM      30.13R
WAUSAU         SUNNY     39  35  86 NW3       30.13R
WIS RAPIDS     MOSUNNY   42  36  79 CALM      30.16R
MARSHFIELD     FOG       36  35  96 CALM      30.14R VSB 1/2
RICE LAKE      SUNNY     39  33  80 CALM      30.16R
$$

...NORTHEAST IOWA...


CITY           SKY/WX    TMP DP  RH WIND       PRES   REMARKS
WATERLOO       CLOUDY    47  41  80 E7        30.13R
DUBUQUE        CLOUDY    43  42  97 E12       30.12R
DECORAH        MOSUNNY   45  39  81 NE6       30.12R
MASON CITY     CLOUDY    44  40  85 E7        30.14R
CHARLES CITY   CLOUDY    46  45  93 CALM      30.13R
OELWEIN        CLOUDY    46  45  93 E8        30.13R
$$

...ELSEWHERE IN IOWA...


CITY           SKY/WX    TMP DP  RH WIND       PRES   REMARKS
DES MOINES     CLOUDY    48  42  80 NE6       30.11R
IOWA CITY      CLOUDY    50  44  80 NE7       30.12R
FORT DODGE     MOSUNNY   43  41  93 N3        30.13S
MARSHALLTOWN   CLOUDY    46  44  93 NE7       30.12R
CEDAR RAPIDS   CLOUDY    48  45  89 NE6       30.10R
$$

...NORTHERN ILLINOIS...


CITY           SKY/WX    TMP DP  RH WIND       PRES   REMARKS
CHICAGO-OHARE  CLOUDY    43  37  79 NE12      30.11R
CHICAGO-MIDWAY CLOUDY    43  37  79 N12G22    30.12R
MOLINE         LGT RAIN  47  44  90 E17       30.10S FOG
ROCKFORD       CLOUDY    44  37  76 NE14      30.15R
PEORIA         CLOUDY    47  43  86 NE8       30.11R
$$

NOTE: "FAIR" INDICATES FEW OR NO CLOUDS BELOW 12,000 FEET WITH NO
SIGNIFICANT WEATHER AND/OR OBSTRUCTIONS TO VISIBILITY. WIND
SPEEDS ARE IN MILES-PER-HOUR.




USA.gov is the U.S. government's official web portal to all federal, state and local government web resources and services.